Вернуться в каталог

COSMOS 1275 DEB

АктивенPO
NORAD 42109·DEBRIS·🇷🇺 Russia

Запущен Jun 4, 1981 с Plesetsk Cosmodrome

Loading…

Ближайшие Пролёты (ближайшие 24 часа)

TLE

СвежийSource: Space-Track

Эпоха: Sep 14, 2026, 08:35 UTC

1 42109U 81053PV  26257.35827841  .00000077  00000-0  60971-4 0  9994
2 42109  82.9458 112.2969 0028477 198.0198 282.7060 13.78331737644381

Отслеживайте COSMOS 1275 DEB в реальном времени с AllMySat

Download on the App Store